Location: Beuthen
(50.3480°N, 18.9328°E)
Time: 08:49:45
(UTC+00:00)

Daily predictions for brighter satellites

Satellite Brightness Start Highest point End
(mag) Time Altitude Azimuth Time Altitude Azimuth Time Altitude Azimuth
BREEZE-M DEB (TANK) 4.2 15:08:17 10° WSW 15:12:10 81° SSE 15:25:38 10° E
PAYLOAD B 4.3 15:13:59 10° SE 15:19:26 59° ENE 15:24:53 10° N
Meteor 1-20 Rocket 4.3 15:13:47 10° N 15:19:40 72° ENE 15:25:26 10° SSE
Cosmos 44 Rocket 3.6 15:20:55 10° NW 15:25:59 54° NE 15:31:07 10° ESE
USA 81 4.2 15:22:01 10° N 15:27:15 56° E 15:32:26 10° SSE
Cosmos 1328 Rocket 3.8 15:25:21 10° SSE 15:29:30 47° E 15:33:43 10° NNE
Cosmos 389 Rocket 3.2 15:26:37 10° SSW 15:29:57 53° WNW 15:33:20 10° N
SL-8 Rocket 4.0 15:24:08 10° N 15:30:26 76° E 15:36:44 10° SSE
Spot 2 4.5 15:27:13 10° SSE 15:32:06 90° WSW 15:37:14 10° NNW
H-2A R/B 3.7 15:31:38 10° ENE 15:33:25 12° NE 15:35:11 10° NNE
Cosmos 1933 Rocket 4.0 15:31:01 10° N 15:35:15 39° ENE 15:39:26 10° SE
Cosmos 1666 Rocket 3.9 15:31:57 10° NNW 15:36:23 73° W 15:40:49 10° S
H-2A R/B 3.1 15:33:13 10° S 15:37:05 71° WSW 15:41:01 10° NNW
Cosmos 1538 Rocket 4.3 15:32:48 10° S 15:37:59 51° ESE 15:43:13 10° NNE
CZ-4B R/B 3.2 15:37:34 12° ENE 15:38:38 13° E 15:40:15 10° ESE
PSLV R/B 4.1 15:37:12 10° S 15:41:17 77° WSW 15:45:18 10° NNW
NOSS 3-2 (A) 4.3 15:37:16 10° S 15:42:10 31° ESE 15:47:10 12° ENE
CZ-2C R/B 4.2 15:39:21 10° E 15:42:28 17° ENE 15:45:33 10° NNE
Meteor 1-26 Rocket 4.4 15:38:38 10° S 15:44:34 63° E 15:50:26 10° NNE
Meteor 1-4 Rocket 2.6 15:41:13 10° S 15:44:40 53° E 15:48:06 10° NNE
Cosmos 1656 Rocket 3.7 15:39:48 10° NNW 15:45:25 61° ENE 15:50:55 10° SE
Cosmos 2056 Rocket 4.4 15:41:17 10° N 15:45:53 29° NE 15:50:30 10° ESE
Cosmos 2341 Rocket 4.5 15:40:09 10° NNW 15:46:26 68° W 15:52:44 10° S
Cosmos 1821 Rocket 4.4 15:41:10 10° N 15:47:04 40° ENE 15:52:59 10° SE
Cosmos 2228 Rocket 4.2 15:44:08 10° SE 15:47:43 24° E 15:51:16 10° NE
H-2A R/B 2.2 15:44:36 10° NNE 15:48:46 51° E 15:53:01 10° S
Cosmos 1666 4.0 15:48:28 10° NNE 15:51:25 20° ENE 15:54:21 10° ESE
Envisat 3.4 15:49:23 10° S 15:54:27 70° WSW 15:59:33 10° NNW
USA 281 4.0 15:49:09 10° E 15:54:39 29° NE 16:00:08 10° NNW
Cosmos 1606 4.3 15:51:08 10° SW 15:54:45 37° WNW 15:58:22 10° N
NOAA 6 4.4 15:50:19 10° S 15:55:27 70° WSW 16:00:35 10° NNW
Cosmos 773 Rocket 4.2 15:50:25 10° SSW 15:55:42 76° WNW 16:01:03 10° NNE
Landsat 5 3.6 15:51:32 10° NNE 15:56:04 81° ESE 16:00:35 10° SSW
Cosmos 1500 3.5 15:53:11 10° N 15:56:52 42° ENE 16:00:32 10° SSE
Cosmos 1633 Rocket 3.9 15:52:35 10° NNW 15:56:52 54° W 16:01:06 10° S
Cosmos 1939 Rocket 3.6 15:53:53 10° SE 15:57:18 30° ENE 16:00:48 10° N
Meteor 1-14 Rocket 4.3 15:53:50 10° N 15:59:51 79° ENE 16:05:51 10° SSE
Cosmos 1697 Rocket 4.5 16:00:27 10° N 16:03:03 13° NNE 16:04:22 12° NE
Cosmos 1782 2.7 15:59:12 10° S 16:03:10 76° E 16:07:11 10° NNE
USA 238 DEB 4.2 15:57:46 10° S 16:03:49 40° ESE 16:08:41 16° ENE
USA 238 4.2 15:57:52 10° S 16:03:55 40° ESE 16:08:46 16° ENE
SL-16 R/B 3.0 15:58:41 10° SW 16:04:11 50° NW 16:09:43 10° NNE
Cosmos 1437 Rocket 4.3 16:04:15 10° SE 16:06:24 17° E 16:06:24 17° E
CZ-4 R/B 2.6 16:06:46 19° E 16:07:58 21° ENE 16:11:06 10° NNE
Cosmos 158 Rocket 4.3 16:03:39 10° S 16:08:13 39° ESE 16:11:34 17° NE
Cosmos 2181 Rocket 4.2 16:03:17 10° SSW 16:09:40 77° W 16:16:00 10° N
Cosmos 371 Rocket 3.6 16:05:29 10° NNW 16:10:11 44° ENE 16:14:50 10° SE
USA 276 4.5 16:08:54 10° SSE 16:10:21 12° SE 16:11:06 12° SE
Cosmos 1869 Rocket 4.0 16:06:36 10° N 16:10:50 39° ENE 16:15:00 10° SE
Helios 1A Rocket 4.0 16:11:13 22° ENE 16:11:19 22° ENE 16:14:26 10° NNE
SWAS 4.4 16:08:08 10° SSW 16:12:23 78° ESE 16:15:39 17° NE
Okean O Rocket 1.7 16:11:32 10° SSE 16:15:55 79° WSW 16:20:21 10° NNW
SMAP 3.4 16:12:30 10° S 16:17:08 70° WSW 16:21:48 10° NNW
NOAA 12 4.4 16:13:49 10° S 16:19:08 72° WSW 16:24:28 10° NNW
CORIOLIS 4.3 16:14:35 10° SSE 16:20:01 80° WSW 16:25:31 10° NNW
CZ-4C R/B 4.0 16:17:21 10° N 16:20:52 47° WNW 16:24:19 10° SW
SL-24 DEB 4.4 16:18:02 10° NNE 16:22:39 50° E 16:27:11 10° SSE
Meteor 1-10 Rocket 4.4 16:17:30 10° SSE 16:22:48 46° E 16:28:06 10° NNE
Okean-O 3.3 16:20:57 10° SE 16:24:53 32° ENE 16:28:50 10° N
FengYun 1-2 T 4.2 16:19:22 10° SSE 16:24:53 88° WSW 16:30:25 10° NNW
Lacrosse 5 rocket 2.2 16:23:10 10° WNW 16:26:27 31° NNW 16:27:42 24° NNE
ATLAS 3B R/B 4.4 16:24:15 10° ESE 16:25:08 11° ESE 16:25:08 11° ESE
Cosmos 1151 Rocket 4.2 16:22:44 10° SW 16:26:47 41° WNW 16:30:51 10° N
Cosmos 2219 Rocket 4.5 16:25:47 10° NW 16:27:46 12° NNW 16:29:44 10° N
USA 267 3.5 16:23:59 22° ENE 16:28:13 53° N 16:34:33 10° WNW
ADEOS Rocket 4.3 16:23:16 10° N 16:30:48 55° WNW 16:38:11 10° SW
Lacrosse 4 Rocket 2.0 16:27:13 10° S 16:30:54 34° ESE 16:31:33 32° E
Cosmos 1605 Rocket 4.4 16:28:40 10° N 16:34:12 34° ENE 16:39:43 10° SE
ISS -2.9 16:32:02 10° WNW 16:35:18 48° SSW 16:37:02 23° SE
CSL-04 Rocket 4.3 16:35:42 29° ENE 16:36:19 30° ENE 16:40:51 10° N
Cosmos 2084 4.0 16:32:38 10° SSW 16:36:39 40° SE 16:37:36 35° E
BREEZE-M DEB (TANK) 2.3 16:38:24 10° WSW 16:40:11 45° SSW 16:40:11 45° SSW
Cosmos 1812 2.5 16:37:54 10° S 16:41:43 77° E 16:43:53 25° NNE
YAOGAN 1 3.0 16:41:41 38° ENE 16:41:52 39° ENE 16:45:54 10° N
SL-23 DEB 4.2 16:38:33 10° WSW 16:42:21 82° SSE 16:44:46 33° ENE
Cosmos 923 Rocket 3.9 16:37:48 10° SSW 16:43:00 78° ESE 16:46:31 21° NNE
Cosmos 1980 Rocket 4.0 16:41:42 10° N 16:44:06 14° NNE 16:44:06 14° NNE
Feng Yun 1-1 Rocket 4.2 16:39:57 10° SSE 16:45:38 88° WSW 16:51:12 10° NNW
ERS-2 2.0 16:45:51 46° NE 16:46:47 68° ESE 16:50:26 10° S
SL-24 R/B 3.9 16:47:15 48° ESE 16:47:15 48° ESE 16:50:34 10° S
CENTAUR R/B 2.7 16:41:35 10° SSW 16:47:20 52° ESE 16:50:21 31° ENE
Cosmos 332 Rocket 3.7 16:42:37 10° NNW 16:47:24 61° ENE 16:51:05 17° SE
Cosmos 1461 3.2 16:44:58 10° SSW 16:49:31 58° SE 16:50:43 44° ENE
X-37B 2.1 16:46:56 10° WSW 16:49:43 28° S 16:50:19 26° SSE
Cosmos 2239 Rocket 4.4 16:45:17 10° N 16:51:30 90° ENE 16:57:44 10° S
ARGOS 3.8 16:53:15 34° NE 16:53:15 34° NE 16:57:27 10° N
Cosmos 2237 Rocket 4.4 16:50:10 10° WNW 16:53:31 16° NNW 16:56:52 10° N
Cosmos 1535 Rocket 4.3 16:50:07 10° N 16:56:14 67° ENE 17:02:19 10° SSE
Cosmos 2369 Rocket 4.4 16:52:41 10° NW 16:57:20 27° WSW 17:01:57 10° SSW
Meteor 2-6 Rocket 4.2 16:52:02 10° SSW 16:57:33 80° WNW 17:03:00 10° N
Cosmos 1238 Rocket 3.4 16:53:20 10° NNW 16:57:36 71° W 17:02:46 10° S
Cosmos 1943 3.4 16:53:31 10° SW 16:59:10 70° WNW 17:02:57 22° NNE
Cosmos 1603 4.1 16:54:37 10° SW 17:00:10 62° WNW 17:03:59 21° NNE
COSMO-SKYMED 1 2.4 16:58:59 38° NNE 17:00:36 77° ESE 17:04:56 10° S
Cosmos 1680 Rocket 3.5 17:03:03 10° SSW 17:08:22 86° WNW 17:10:55 32° NNE
Cosmos 1707 Rocket 4.2 17:04:39 10° S 17:07:41 40° SSE 17:07:41 40° SSE
Cosmos 1934 Rocket 3.9 17:03:02 10° N 17:09:26 86° E 17:15:43 10° S
NOSS 3-2 (C) 3.3 17:04:05 10° SSW 17:09:43 67° SE 17:11:34 45° ENE
CZ-4B R/B 2.4 17:10:42 40° NW 17:11:04 42° WNW 17:14:07 10° SW
H-2A R/B 1.9 17:10:52 49° ESE 17:11:54 60° ENE 17:16:53 10° N
Cosmos 1536 3.7 17:08:00 10° N 17:10:28 36° N 17:10:28 36° N
MOS 1 Rocket 3.6 17:12:57 54° ENE 17:13:37 58° E 17:18:51 10° S
CZ-2D R/B 3.7 17:09:51 10° S 17:13:39 62° WSW 17:17:30 10° NNW
Cosmos 304 Rocket 3.6 17:10:10 10° NNW 17:15:01 81° ENE 17:16:03 56° SE
NOAA 15 4.5 17:12:32 10° SSE 17:17:49 85° ENE 17:23:07 10° NNW
Meteor 1-11 Rocket 4.1 17:13:48 10° NNW 17:19:35 67° W 17:25:26 10° S
BREEZE-M DEB (TANK) 4.2 17:18:18 10° SW 17:19:40 18° SSW 17:19:40 18° SSW
CZ-2C R/B 2.9 17:16:56 10° S 17:21:50 78° WSW 17:26:37 10° NNW
H-2A R/B 4.4 17:21:14 10° NNW 17:24:27 21° WNW 17:27:44 10° WSW
Cosmos 2228 Rocket 4.2 17:21:23 10° SW 17:25:41 43° WNW 17:28:59 16° N
Cosmos 1666 4.1 17:23:32 10° NNW 17:27:09 39° W 17:30:45 10° SSW
Cosmos 2056 Rocket 4.2 17:23:08 10° NNW 17:28:20 56° WSW 17:33:35 10° S
Cosmos 2112 Rocket 4.2 17:25:01 10° SSW 17:30:19 69° WNW 17:32:04 42° N
NOSS 3-2 (A) 3.6 17:26:41 10° SW 17:32:29 67° NW 17:34:34 43° NNE
USA 215 3.8 17:36:51 40° SE 17:36:51 40° SE 17:42:27 10° SSW
USA 281 3.2 17:33:04 16° SSE 17:38:34 83° WSW 17:45:12 10° NNW
Cosmos 1452 Rocket 4.0 17:35:44 10° NNW 17:39:40 50° N 17:39:40 50° N
CZ-4 R/B 2.4 17:42:47 46° W 17:42:47 46° W 17:46:41 10° NNW
Cosmos 1437 Rocket 4.1 17:39:02 10° SSW 17:41:51 37° WSW 17:41:51 37° WSW
Helios 1A Rocket 4.4 17:47:27 33° NW 17:47:27 33° NW 17:50:07 10° NNW
BREEZE-M DEB (TANK) 4.2 17:40:59 10° WSW 17:45:38 39° SW 17:45:38 39° SW
Cosmos 1697 Rocket 4.2 17:43:27 10° NNW 17:46:07 25° N 17:46:07 25° N
SL-16 R/B 4.5 17:46:24 10° WNW 17:49:44 16° NNW 17:52:19 12° N
USA 238 DEB 4.0 17:47:57 10° WSW 17:54:32 61° NW 17:56:08 49° N
USA 238 4.0 17:48:02 10° WSW 17:54:38 61° NW 17:56:13 49° N
Meteor 1-27 Rocket 4.3 17:52:30 10° SSW 17:57:55 54° WNW 18:00:15 33° NNW
Okean-O 4.2 17:57:19 10° SSW 18:01:19 33° W 18:05:22 10° NNW
Lacrosse 5 rocket 4.1 18:03:01 10° NW 18:03:20 12° NW 18:03:20 12° NW
Lacrosse 4 Rocket 3.5 18:05:48 10° WSW 18:07:52 24° W 18:07:52 24° W
USA 267 3.2 18:11:20 81° NW 18:11:20 81° NW 18:17:34 10° WNW
ATLAS 3B R/B 3.8 18:09:21 10° SSW 18:12:26 29° S 18:12:26 29° S
Cosmos 1980 Rocket 4.4 18:24:45 10° NNW 18:25:52 16° NNW 18:25:52 16° NNW
CENTAUR R/B 3.3 18:31:59 10° WSW 18:37:34 49° NW 18:37:34 49° NW
H-2A R/B 4.2 18:51:29 22° W 18:51:43 22° W 18:55:39 10° NW
